{"data":{"norad_id":62329,"epoch":"2026-05-25T03:17:47.760576Z","epoch_age_seconds":77270,"freshness":"FRESH","line1":"1 62329U 24240G   26145.13735834  .00000063  00000+0  11175-3 0  9992","line2":"2 62329  86.4953 350.7381 0001450  82.4121 277.7177 13.24408355 69596","mean_motion":13.24408355,"eccentricity":0.000145,"inclination_deg":86.4953,"raan_deg":350.7381,"arg_perigee_deg":82.4121,"mean_anomaly_deg":277.7177,"bstar":0.00011175,"rev_number":6959,"period_min":108.72779491035,"perigee_km":1166.8342545967,"apogee_km":1169.0226135726,"semimajor_km":7546.0654340847,"source":"CELESTRAK","updated_at":"2026-05-25T13:38:02.937887Z"}}